Regional Weather Roundup
Issued by NWS Portland, ME

Home | Current Version | Previous Version | Text Only | Print | Product List | Glossary On
Versions: 1 2 3 4 5 6 7 8 9 10 11 12 13 14 15 16 17 18 19 20 21 22 23 24 25 26 27 28 29 30 31 32 33 34 35 36 37 38 39 40 41 42 43 44 45 46 47 48 49 50
000
ASUS41 KGYX 240510
RWRGYX
WEATHER ROUNDUP FOR MAINE AND NEW HAMPSHIRE
NATIONAL WEATHER SERVICE GRAY ME
100 AM EDT SUN MAY 24 2015

MEZ002-005-006-010-012-015-018-020-021-024-026-027-029-240600-
MAINE

CITY           SKY/WX    TMP DP  RH WIND       PRES   REMARKS
PORTLAND       PTCLDY    51  31  46 SW8       30.21S
BAR HARBOR     CLEAR     45  43  93 S5        30.18S
WISCASSET      PTCLDY    39  33  79 CALM      30.20F
ROCKLAND       CLEAR     46  36  66 SW5       30.18F
FRYEBURG       CLEAR     49  26  41 SW7       30.18F
LEWISTONAUBURN CLEAR     45  28  53 S7        30.17F
AUGUSTA        PTCLDY    45  27  49 S6        30.17F
WATERVILLE     MOCLDY    43  28  56 SW3       30.14S
BANGOR         PTCLDY    44  30  57 S7        30.15F
GREENVILLE       N/A     43  26  51 CALM      30.08F
MILLINOCKET    MOCLDY    50  26  39 VRB7      30.11F
HOULTON        CLEAR     42  27  55 SW6       30.06F
PRESQUE ISLE   PTCLDY    43  27  52 S6        30.03F
FRENCHVILLE    MOCLDY    40  26  57 SW7       29.97F
CARIBOU        PTCLDY    43  28  55 S8        30.00F
$$

NHZ002-005-008-009-011-012-014-240600-
NEW HAMPSHIRE

CITY           SKY/WX    TMP DP  RH WIND       PRES   REMARKS
PORTSMOUTH     PTCLDY    50  29  45 SW6       30.22F
ROCHESTER      CLEAR     50  29  44 CALM      30.22F
NASHUA         CLEAR     47  32  56 CALM      30.27F
MANCHESTER     CLEAR     52  28  39 S6        30.24F
CONCORD        CLEAR     46  30  53 S6        30.24S
LACONIA        CLEAR     52  27  37 S3        30.20F
PLYMOUTH       FAIR      35  35 100 CALM      30.22S
BERLIN         CLEAR     32  27  81 N5        30.16F
WHITEFIELD     CLEAR     46  24  42 SW7       30.17F
JAFFREY        CLEAR     48  28  46 SW6       30.28R
KEENE          CLEAR     41  32  70 CALM      30.28S
LEBANON        CLEAR     47  30  51 S8        30.22S
MT WASHINGTON  PTCLDY    28  19  69 NW56        N/A  WCI   8
$$

VTZ005-007-008-240600-
VERMONT

CITY           SKY/WX    TMP DP  RH WIND       PRES   REMARKS
ST JOHNSBURY     N/A     41  35  79 MISG      30.16F
MONTPELIER     CLEAR     51  23  33 SW9       30.22
BURLINGTON     CLEAR     54  26  34 S10       30.17F
$$

MAZ007-012-024-CTZ003-RIZ002-NYZ038-NYZ072-240600-
SOUTHERN NEW ENGLAND AND NY

CITY           SKY/WX    TMP DP  RH WIND       PRES   REMARKS
BOSTON         CLEAR     54  33  45 SW13      30.29S
WORCESTER      CLEAR     48  31  51 W13       30.29S
NANTUCKET      CLEAR     51  46  83 SW17      30.34F
PROVIDENCE     CLEAR     51  39  63 SW9       30.33S
HARTFORD       CLEAR     50  36  58 S8        30.31S
ALBANY         CLEAR     46  34  62 S5        30.29S
NEW YORK CITY  CLEAR     59  44  57 S7        30.35S
$$

ANZ081-ANZ082-ANZ150-NHZ014-MEZ023>029-240600-
COASTAL MARINE OBSERVATIONS

STATION/POSITION TIME  TEMP    WIND        PRES    WAVE
                       AIR SEA DIR/SP/G            HT/PER
                 (UTC) (F)     (DEG/KT/KT) (MB)    (FT/S)
MOUNT DESERT ROC 0500   45     200/ 18/ 19   N/A
MATINICUS ROCK   0400   48     220/ 22/ 24   N/A
ISLE OF SHOALS   0400   53     240/ 16/ 16   N/A
JEFFREYS LEDGE   0403      47                N/A     2/ 8
CASHES LEDGE BUO 0450   51 48                N/A     4/ 4
GEORGES BANK BUO 0450   48 47  240/ 14/ 16   N/A     4/ 8
$$

.............KEY..............
   WCI - WIND CHILL
   TC  - TEMPERATURE IN CELSIUS
   VSB - VISIBILITY IN MILES
   HX  - HEAT INDEX
   FAIR- INDICATES FEW OR NO CLOUDS BELOW 12,000 FT, WITH NO
         SIGNIFICANT WEATHER AND/OR OBSTRUCTIONS TO VISIBILITY.




USA.gov is the U.S. government's official web portal to all federal, state and local government web resources and services.